Precipitable_Water
0.27 0.28 0.29 0.32 0.32 0.30 0.29 0.28 0.30 0.29 0.31 0.29 0.26 0.24 0.26 0.26 0.22 0.20 0.26 0.30 0.27 0.30 0.33 0.35 0.38 0.43 0.45 0.45 0.44 0.48 0.55 0.50 0.43 0.42 0.42 0.45 0.53 0.63 0.68 0.70 0.71 0.71 0.72 0.77 0.81 0.86 0.94 1.02 1.02 1.01 1.01 1.03 1.05 1.02 0.99 0.96 0.95 0.97 1.05 1.09 1.09 1.10 1.11 1.10 1.10 1.14 1.16 1.17 1.19 1.19 1.20 1.22 1.24 1.25 1.27 1.29 1.29 1.27 1.25 1.23 1.19 1.17 1.16 1.12 1.08 1.05 1.01
0.31 0.32 0.33 0.35 0.33 0.31 0.30 0.29 0.30 0.32 0.31 0.30 0.29 0.26 0.27 0.26 0.23 0.27 0.28 0.27 0.28 0.31 0.34 0.35 0.40 0.46 0.48 0.49 0.51 0.50 0.54 0.54 0.52 0.51 0.48 0.49 0.53 0.63 0.72 0.74 0.75 0.75 0.75 0.77 0.81 0.89 0.98 1.01 1.00 0.99 0.97 0.98 0.98 0.96 0.96 0.97 0.96 1.01 1.05 1.06 1.05 1.06 1.07 1.08 1.12 1.16 1.16 1.16 1.16 1.16 1.16 1.18 1.22 1.25 1.28 1.29 1.29 1.27 1.25 1.23 1.19 1.16 1.15 1.11 1.07 1.04 0.99
0.28 0.32 0.35 0.36 0.34 0.32 0.28 0.30 0.32 0.32 0.31 0.29 0.29 0.28 0.27 0.25 0.23 0.28 0.29 0.27 0.27 0.33 0.36 0.36 0.37 0.43 0.51 0.48 0.52 0.50 0.52 0.56 0.56 0.61 0.60 0.57 0.59 0.65 0.71 0.78 0.81 0.81 0.81 0.83 0.88 0.94 0.96 0.97 0.96 0.96 0.95 0.97 0.99 0.99 0.97 0.95 0.94 1.00 1.04 1.03 1.02 1.03 1.05 1.10 1.13 1.14 1.13 1.13 1.14 1.13 1.16 1.20 1.24 1.26 1.28 1.29 1.29 1.28 1.27 1.23 1.18 1.17 1.14 1.09 1.05 1.02 0.99
0.27 0.32 0.31 0.30 0.31 0.31 0.29 0.28 0.28 0.29 0.31 0.27 0.27 0.24 0.24 0.21 0.22 0.26 0.27 0.26 0.26 0.33 0.35 0.35 0.36 0.41 0.49 0.46 0.52 0.51 0.52 0.54 0.61 0.66 0.73 0.73 0.74 0.75 0.82 0.86 0.89 0.90 0.91 0.93 0.96 0.96 0.96 0.97 0.96 0.95 0.96 0.99 1.00 0.99 1.02 1.00 1.00 1.04 1.05 1.04 1.01 1.02 1.07 1.10 1.12 1.11 1.09 1.09 1.11 1.14 1.17 1.19 1.23 1.26 1.29 1.29 1.28 1.28 1.26 1.21 1.18 1.17 1.13 1.09 1.05 1.03 1.00
0.26 0.31 0.32 0.30 0.29 0.26 0.21 0.22 0.26 0.30 0.32 0.34 0.34 0.33 0.30 0.25 0.25 0.25 0.24 0.25 0.30 0.32 0.34 0.34 0.36 0.43 0.49 0.49 0.51 0.56 0.55 0.58 0.63 0.69 0.80 0.84 0.86 0.85 0.92 0.98 1.01 1.02 0.99 0.98 0.97 0.97 0.98 1.01 1.02 1.01 1.01 1.00 0.97 0.98 1.01 1.05 1.07 1.05 1.03 1.03 1.01 1.03 1.08 1.09 1.10 1.10 1.07 1.05 1.09 1.14 1.16 1.20 1.24 1.25 1.25 1.27 1.28 1.27 1.23 1.22 1.19 1.14 1.12 1.09 1.05 1.04 1.01
0.29 0.35 0.35 0.33 0.24 0.16 0.19 0.34 0.38 0.36 0.31 0.31 0.28 0.26 0.28 0.29 0.29 0.26 0.28 0.28 0.31 0.32 0.35 0.37 0.37 0.42 0.46 0.51 0.54 0.64 0.62 0.59 0.65 0.72 0.84 0.96 1.02 0.99 0.99 1.00 1.05 1.09 1.08 1.05 1.02 1.00 1.01 1.04 1.06 1.06 1.07 1.02 1.01 1.04 1.05 1.09 1.06 1.04 1.02 1.02 1.00 1.01 1.06 1.08 1.10 1.08 1.06 1.05 1.06 1.11 1.16 1.20 1.23 1.24 1.25 1.28 1.31 1.31 1.27 1.21 1.16 1.13 1.11 1.09 1.07 1.04 1.03
0.29 0.35 0.34 0.26 0.21 0.22 0.34 0.39 0.41 0.40 0.38 0.37 0.34 0.33 0.33 0.32 0.29 0.28 0.28 0.29 0.30 0.32 0.35 0.38 0.40 0.45 0.51 0.54 0.52 0.58 0.63 0.66 0.72 0.76 0.85 0.88 0.92 0.99 1.07 1.06 1.09 1.16 1.17 1.09 1.06 1.08 1.09 1.10 1.11 1.11 1.12 1.13 1.13 1.12 1.10 1.06 1.07 1.04 1.02 0.99 0.97 0.98 1.01 1.06 1.07 1.05 1.04 1.05 1.07 1.11 1.16 1.22 1.26 1.29 1.31 1.31 1.30 1.29 1.24 1.18 1.14 1.11 1.10 1.09 1.07 1.05 1.04
0.35 0.31 0.28 0.19 0.22 0.34 0.39 0.40 0.42 0.45 0.43 0.41 0.34 0.30 0.35 0.36 0.35 0.36 0.32 0.32 0.32 0.30 0.31 0.35 0.42 0.47 0.51 0.52 0.53 0.59 0.64 0.70 0.68 0.68 0.76 0.99 1.07 0.98 0.99 1.05 1.13 1.18 1.16 1.11 1.07 1.04 1.09 1.12 1.14 1.14 1.11 1.14 1.11 1.07 1.09 1.05 1.03 1.01 0.99 0.96 0.93 0.96 0.99 1.01 1.00 1.02 1.07 1.10 1.11 1.13 1.16 1.22 1.29 1.30 1.28 1.28 1.26 1.25 1.22 1.18 1.15 1.13 1.12 1.11 1.08 1.06 1.06
0.25 0.27 0.26 0.24 0.33 0.33 0.35 0.36 0.38 0.40 0.36 0.36 0.32 0.24 0.28 0.38 0.45 0.46 0.38 0.34 0.32 0.31 0.28 0.31 0.36 0.40 0.44 0.45 0.47 0.60 0.65 0.69 0.67 0.71 0.68 0.78 0.98 1.02 1.00 0.96 1.01 1.15 1.17 1.14 1.12 1.11 1.12 1.11 1.11 1.11 1.15 1.15 1.12 1.09 1.06 1.03 1.02 1.00 0.97 0.92 0.91 0.92 0.95 0.96 0.98 1.03 1.07 1.08 1.13 1.18 1.20 1.21 1.21 1.25 1.25 1.23 1.24 1.26 1.20 1.16 1.13 1.11 1.11 1.11 1.11 1.09 1.07
0.33 0.26 0.23 0.25 0.25 0.21 0.28 0.35 0.44 0.50 0.51 0.48 0.46 0.36 0.29 0.40 0.51 0.55 0.47 0.39 0.36 0.33 0.34 0.33 0.34 0.38 0.39 0.38 0.42 0.57 0.61 0.63 0.66 0.67 0.67 0.69 0.73 0.83 0.84 0.78 0.82 0.95 1.07 1.13 1.15 1.14 1.14 1.15 1.15 1.16 1.15 1.14 1.12 1.09 1.06 1.05 1.02 0.98 0.94 0.90 0.90 0.90 0.89 0.92 0.97 1.05 1.10 1.09 1.06 1.09 1.14 1.19 1.22 1.26 1.25 1.24 1.23 1.25 1.19 1.16 1.13 1.12 1.12 1.11 1.11 1.10 1.08
0.30 0.28 0.23 0.23 0.21 0.24 0.33 0.37 0.42 0.50 0.55 0.52 0.52 0.35 0.26 0.42 0.54 0.57 0.51 0.45 0.46 0.44 0.36 0.36 0.37 0.36 0.35 0.37 0.41 0.53 0.58 0.58 0.57 0.58 0.63 0.68 0.70 0.76 0.80 0.76 0.78 0.89 0.97 1.01 1.05 1.11 1.14 1.15 1.20 1.20 1.17 1.14 1.11 1.07 1.08 1.07 1.04 0.97 0.93 0.93 0.93 0.90 0.91 0.97 1.05 1.09 1.10 1.08 1.08 1.12 1.15 1.22 1.26 1.31 1.26 1.24 1.26 1.25 1.22 1.19 1.15 1.14 1.13 1.10 1.10 1.10 1.09
0.28 0.26 0.24 0.23 0.29 0.28 0.37 0.46 0.50 0.56 0.59 0.55 0.44 0.22 0.23 0.50 0.55 0.55 0.52 0.49 0.49 0.51 0.50 0.42 0.39 0.36 0.34 0.36 0.42 0.51 0.57 0.57 0.53 0.55 0.65 0.66 0.67 0.74 0.80 0.81 0.80 0.86 0.90 0.93 0.97 0.99 1.01 1.05 1.14 1.18 1.19 1.16 1.12 1.10 1.10 1.11 1.06 0.99 0.96 0.97 0.98 0.99 1.01 1.05 1.10 1.11 1.11 1.10 1.11 1.16 1.20 1.25 1.34 1.32 1.29 1.26 1.26 1.24 1.21 1.19 1.16 1.15 1.13 1.10 1.08 1.07 1.06
0.26 0.27 0.27 0.30 0.33 0.43 0.51 0.53 0.58 0.64 0.64 0.52 0.29 0.20 0.30 0.54 0.59 0.60 0.57 0.55 0.54 0.56 0.52 0.49 0.37 0.39 0.39 0.42 0.46 0.54 0.55 0.53 0.58 0.59 0.58 0.66 0.75 0.74 0.74 0.75 0.78 0.80 0.86 0.89 0.90 0.95 1.01 1.06 1.11 1.14 1.16 1.15 1.12 1.13 1.13 1.11 1.05 1.02 1.06 1.09 1.08 1.05 1.07 1.09 1.08 1.12 1.17 1.22 1.22 1.25 1.29 1.29 1.34 1.29 1.27 1.26 1.25 1.23 1.20 1.18 1.16 1.12 1.09 1.06 1.03 1.03 1.03
0.26 0.29 0.28 0.30 0.34 0.47 0.59 0.66 0.67 0.70 0.56 0.34 0.28 0.45 0.63 0.62 0.59 0.65 0.65 0.60 0.61 0.61 0.59 0.55 0.53 0.50 0.51 0.54 0.53 0.51 0.52 0.54 0.56 0.56 0.54 0.57 0.63 0.68 0.75 0.78 0.79 0.80 0.81 0.84 0.87 0.93 1.00 1.06 1.10 1.14 1.16 1.13 1.11 1.11 1.10 1.07 1.08 1.15 1.17 1.15 1.13 1.12 1.10 1.08 1.08 1.08 1.15 1.23 1.24 1.22 1.25 1.29 1.23 1.24 1.27 1.29 1.28 1.25 1.21 1.16 1.13 1.07 1.03 1.02 1.01 0.99 0.98
0.34 0.35 0.31 0.30 0.27 0.45 0.65 0.65 0.64 0.66 0.48 0.48 0.61 0.66 0.67 0.70 0.65 0.65 0.66 0.64 0.64 0.64 0.61 0.64 0.62 0.57 0.53 0.54 0.54 0.53 0.50 0.51 0.53 0.54 0.54 0.52 0.51 0.53 0.55 0.60 0.67 0.71 0.75 0.79 0.83 0.88 0.97 1.03 1.08 1.12 1.13 1.09 1.10 1.11 1.07 1.11 1.20 1.22 1.22 1.19 1.17 1.14 1.11 1.09 1.13 1.17 1.19 1.20 1.19 1.20 1.26 1.29 1.28 1.24 1.25 1.23 1.22 1.21 1.16 1.11 1.07 1.04 1.01 0.99 0.96 0.94 0.93
0.31 0.30 0.29 0.31 0.44 0.55 0.67 0.65 0.49 0.57 0.63 0.73 0.77 0.73 0.66 0.71 0.71 0.66 0.65 0.65 0.68 0.71 0.68 0.65 0.61 0.60 0.56 0.54 0.59 0.57 0.50 0.51 0.56 0.59 0.58 0.57 0.56 0.55 0.61 0.70 0.74 0.75 0.70 0.76 0.83 0.90 0.95 1.00 1.06 1.11 1.10 1.08 1.10 1.11 1.12 1.23 1.26 1.26 1.24 1.22 1.19 1.14 1.13 1.13 1.11 1.15 1.19 1.20 1.23 1.24 1.27 1.25 1.27 1.25 1.22 1.20 1.18 1.12 1.11 1.07 1.05 1.02 0.99 0.94 0.88 0.84 0.83
0.42 0.37 0.42 0.53 0.62 0.66 0.71 0.71 0.67 0.70 0.76 0.82 0.83 0.77 0.72 0.70 0.70 0.75 0.69 0.67 0.71 0.73 0.74 0.71 0.66 0.60 0.58 0.59 0.61 0.58 0.66 0.61 0.58 0.59 0.59 0.61 0.61 0.62 0.69 0.78 0.79 0.81 0.82 0.83 0.86 0.90 0.96 1.01 1.09 1.13 1.14 1.10 1.12 1.14 1.21 1.26 1.26 1.26 1.24 1.22 1.15 1.11 1.09 1.10 1.14 1.20 1.19 1.23 1.21 1.25 1.27 1.26 1.23 1.21 1.17 1.14 1.10 1.09 1.06 1.04 1.02 0.99 0.91 0.85 0.86 0.88 0.87
0.58 0.59 0.57 0.60 0.63 0.68 0.68 0.77 0.78 0.77 0.78 0.83 0.82 0.76 0.71 0.72 0.74 0.76 0.73 0.73 0.72 0.74 0.77 0.71 0.69 0.65 0.64 0.61 0.62 0.63 0.68 0.77 0.71 0.66 0.68 0.69 0.72 0.77 0.82 0.86 0.90 0.90 0.93 0.97 0.98 0.95 1.01 1.08 1.10 1.14 1.16 1.16 1.10 1.14 1.22 1.26 1.29 1.28 1.25 1.17 1.10 1.10 1.12 1.10 1.13 1.19 1.19 1.21 1.24 1.27 1.24 1.25 1.21 1.17 1.13 1.11 1.07 1.06 1.04 1.00 0.97 0.89 0.85 0.93 0.96 0.96 0.91
0.49 0.39 0.56 0.57 0.60 0.66 0.70 0.72 0.75 0.79 0.83 0.82 0.82 0.79 0.77 0.78 0.78 0.78 0.79 0.77 0.75 0.74 0.77 0.73 0.69 0.70 0.73 0.70 0.68 0.67 0.71 0.77 0.85 0.84 0.77 0.71 0.73 0.78 0.82 0.89 0.91 0.92 0.93 0.93 0.99 1.08 1.09 1.21 1.21 1.18 1.18 1.20 1.21 1.24 1.26 1.31 1.31 1.27 1.20 1.13 1.13 1.17 1.16 1.16 1.15 1.14 1.12 1.18 1.21 1.23 1.22 1.18 1.13 1.10 1.10 1.08 1.05 1.00 0.95 0.93 0.89 0.88 0.91 0.95 0.94 0.90 0.89
0.48 0.45 0.54 0.60 0.66 0.68 0.72 0.72 0.73 0.72 0.76 0.82 0.85 0.84 0.87 0.87 0.87 0.82 0.79 0.78 0.74 0.78 0.74 0.76 0.72 0.72 0.77 0.76 0.74 0.71 0.72 0.84 0.89 0.82 0.81 0.86 0.85 0.85 0.88 0.89 0.89 0.89 0.92 0.94 0.97 0.96 1.01 1.19 1.25 1.30 1.27 1.25 1.30 1.28 1.32 1.36 1.29 1.22 1.13 1.13 1.16 1.18 1.20 1.18 1.17 1.18 1.20 1.20 1.18 1.17 1.15 1.11 1.07 1.06 1.06 1.06 1.00 0.95 0.92 0.89 0.89 0.91 0.96 0.97 0.91 0.86 0.92
0.52 0.57 0.58 0.61 0.63 0.63 0.66 0.72 0.78 0.81 0.82 0.82 0.83 0.84 0.84 0.89 0.86 0.81 0.79 0.77 0.78 0.81 0.80 0.80 0.77 0.74 0.77 0.77 0.74 0.71 0.71 0.87 0.90 0.87 0.87 0.89 0.93 0.94 0.88 0.90 0.92 0.91 0.93 0.92 0.92 0.92 0.94 1.05 1.22 1.23 1.26 1.28 1.31 1.31 1.35 1.35 1.25 1.16 1.11 1.14 1.14 1.13 1.14 1.14 1.15 1.20 1.19 1.17 1.15 1.12 1.10 1.08 1.08 1.08 1.04 1.02 1.01 0.99 1.00 1.05 1.05 1.01 0.95 0.91 0.95 0.98 0.97
0.42 0.44 0.49 0.58 0.49 0.47 0.60 0.69 0.75 0.78 0.83 0.85 0.85 0.86 0.87 0.88 0.81 0.79 0.78 0.82 0.88 0.87 0.85 0.81 0.76 0.72 0.74 0.77 0.73 0.69 0.87 0.96 0.90 0.83 0.82 0.88 0.95 1.00 1.03 1.02 1.01 0.99 0.95 0.92 0.93 0.97 0.94 0.99 1.08 1.22 1.30 1.31 1.32 1.34 1.34 1.29 1.24 1.17 1.15 1.16 1.15 1.10 1.10 1.09 1.10 1.12 1.12 1.12 1.11 1.08 1.05 1.02 1.01 1.01 1.06 1.08 1.06 1.01 1.01 1.07 1.06 1.02 0.98 0.95 1.00 1.00 0.94
0.41 0.51 0.57 0.63 0.64 0.63 0.66 0.70 0.77 0.82 0.85 0.84 0.82 0.84 0.84 0.85 0.87 0.87 0.86 0.89 0.87 0.77 0.81 0.83 0.79 0.74 0.72 0.74 0.80 0.93 1.03 0.98 0.95 0.88 0.82 0.82 0.88 0.94 1.00 1.01 1.00 0.97 0.97 1.01 0.99 0.96 0.99 1.04 1.08 1.16 1.25 1.28 1.32 1.31 1.29 1.28 1.24 1.20 1.17 1.12 1.10 1.10 1.10 1.10 1.11 1.11 1.10 1.07 1.04 1.02 1.01 1.00 1.01 1.01 1.01 1.02 1.02 1.03 1.04 1.04 1.03 1.00 0.98 0.98 0.97 0.93 0.88
0.55 0.59 0.63 0.68 0.66 0.59 0.66 0.75 0.78 0.81 0.87 0.83 0.80 0.83 0.86 0.87 0.89 0.91 0.86 0.84 0.82 0.79 0.81 0.86 0.85 0.80 0.77 0.80 0.84 0.88 0.92 0.93 0.89 0.85 0.86 0.86 0.89 0.98 1.03 1.02 1.00 0.98 1.03 1.02 0.99 0.99 1.07 1.14 1.19 1.20 1.20 1.25 1.27 1.29 1.31 1.31 1.29 1.25 1.22 1.16 1.10 1.08 1.07 1.05 1.05 1.03 1.02 1.00 0.99 0.97 0.98 0.99 1.00 0.99 0.97 0.93 0.94 0.99 1.01 1.01 0.99 0.97 0.95 0.95 0.93 0.91 0.90
0.53 0.62 0.67 0.69 0.67 0.69 0.75 0.77 0.80 0.83 0.86 0.87 0.83 0.83 0.87 0.88 0.88 0.85 0.84 0.83 0.87 0.84 0.81 0.83 0.89 0.89 0.86 0.87 0.88 0.85 0.84 0.84 0.86 0.84 0.84 0.84 0.85 0.99 1.09 1.05 1.04 1.05 1.06 1.05 1.07 1.13 1.18 1.24 1.25 1.24 1.25 1.27 1.32 1.30 1.26 1.24 1.23 1.17 1.13 1.10 1.06 1.02 1.01 1.00 0.99 1.00 1.00 0.99 0.99 0.99 0.97 0.97 0.96 0.97 0.95 0.93 0.90 0.92 0.97 0.99 0.97 0.96 0.94 0.92 0.92 0.91 0.91
0.64 0.66 0.69 0.70 0.69 0.68 0.70 0.72 0.74 0.78 0.82 0.85 0.86 0.85 0.86 0.89 0.87 0.87 0.85 0.85 0.86 0.86 0.84 0.85 0.86 0.87 0.89 0.87 0.87 0.87 0.83 0.80 0.83 0.86 0.89 0.91 0.95 0.98 1.01 1.09 1.06 1.11 1.11 1.11 1.07 1.17 1.24 1.27 1.28 1.21 1.19 1.22 1.30 1.31 1.30 1.27 1.23 1.17 1.12 1.07 1.03 1.01 1.00 1.00 0.99 0.97 0.97 0.98 0.99 0.99 1.00 0.99 0.99 0.98 0.98 0.96 0.94 0.94 0.93 0.93 0.95 0.97 0.97 0.97 0.95 0.93 0.91
0.65 0.69 0.66 0.62 0.61 0.61 0.66 0.63 0.64 0.76 0.81 0.84 0.86 0.83 0.86 0.87 0.88 0.87 0.86 0.89 0.88 0.88 0.86 0.87 0.91 0.93 0.91 0.89 0.86 0.86 0.81 0.79 0.78 0.79 0.83 0.91 0.95 0.97 1.04 1.04 1.07 1.17 1.14 1.10 1.11 1.19 1.22 1.16 1.21 1.26 1.22 1.23 1.29 1.30 1.28 1.25 1.21 1.17 1.12 1.08 1.04 1.03 1.03 1.04 1.04 1.04 1.04 1.04 1.02 1.01 1.00 0.99 0.98 0.97 0.97 0.98 0.97 0.97 0.98 0.98 0.98 0.96 0.97 0.98 0.96 0.93 0.91
0.63 0.65 0.65 0.56 0.55 0.58 0.63 0.71 0.73 0.78 0.79 0.81 0.82 0.82 0.84 0.85 0.86 0.84 0.83 0.84 0.85 0.89 0.88 0.88 0.87 0.87 0.87 0.88 0.85 0.80 0.83 0.81 0.79 0.82 0.84 0.86 0.92 0.96 0.94 1.01 1.10 1.09 1.03 1.04 1.10 1.15 1.10 1.09 1.15 1.22 1.19 1.20 1.21 1.21 1.19 1.14 1.10 1.08 1.09 1.09 1.08 1.05 1.04 1.04 1.03 1.02 1.03 1.03 1.03 1.02 1.02 1.02 1.02 1.01 1.02 1.03 1.02 1.01 1.02 1.01 1.01 0.99 0.96 0.94 0.93 0.93 0.91
0.58 0.62 0.67 0.70 0.69 0.71 0.75 0.78 0.74 0.72 0.76 0.81 0.79 0.79 0.79 0.77 0.79 0.80 0.82 0.85 0.86 0.87 0.86 0.88 0.86 0.85 0.85 0.88 0.86 0.79 0.76 0.75 0.75 0.78 0.83 0.91 0.95 1.00 0.99 0.99 1.01 1.00 1.01 1.06 1.11 1.11 1.03 0.99 1.02 1.11 1.16 1.19 1.18 1.19 1.17 1.14 1.09 1.06 1.04 1.03 1.02 1.01 1.01 1.02 1.03 1.02 1.02 1.03 1.03 1.04 1.04 1.04 1.04 1.03 1.04 1.02 1.01 1.02 0.99 0.96 0.94 0.94 0.93 0.93 0.92 0.90 0.90
0.59 0.63 0.66 0.68 0.69 0.69 0.71 0.70 0.69 0.69 0.70 0.73 0.71 0.72 0.74 0.75 0.75 0.77 0.79 0.81 0.84 0.83 0.87 0.89 0.85 0.81 0.85 0.84 0.86 0.84 0.80 0.79 0.79 0.81 0.81 0.84 0.90 0.95 0.97 1.00 0.99 0.97 0.97 0.99 1.01 1.03 0.99 0.99 1.01 1.09 1.13 1.17 1.18 1.17 1.15 1.13 1.11 1.09 1.06 1.03 1.02 1.03 1.04 1.05 1.06 1.06 1.04 1.03 1.03 1.03 1.02 1.02 1.02 1.01 1.00 0.99 0.97 0.94 0.94 0.94 0.95 0.95 0.93 0.93 0.92 0.90 0.87
0.59 0.60 0.60 0.62 0.66 0.69 0.68 0.68 0.69 0.70 0.75 0.75 0.71 0.70 0.71 0.70 0.69 0.69 0.71 0.74 0.76 0.76 0.79 0.81 0.80 0.80 0.81 0.83 0.85 0.87 0.87 0.86 0.85 0.86 0.88 0.89 0.90 0.91 0.94 0.96 0.93 0.92 0.95 0.97 1.01 1.00 0.96 0.93 1.00 1.04 1.12 1.17 1.18 1.17 1.14 1.09 1.08 1.07 1.05 1.03 1.02 1.03 1.04 1.05 1.05 1.04 1.03 1.02 1.01 1.00 1.00 1.00 1.00 0.99 0.95 0.92 0.91 0.91 0.89 0.86 0.86 0.90 0.93 0.93 0.93 0.90 0.86
0.54 0.55 0.56 0.58 0.60 0.60 0.64 0.68 0.65 0.67 0.69 0.72 0.67 0.63 0.65 0.64 0.62 0.63 0.66 0.68 0.71 0.74 0.74 0.74 0.75 0.76 0.81 0.81 0.84 0.88 0.89 0.87 0.85 0.84 0.87 0.89 0.91 0.93 0.94 0.93 0.96 0.97 0.99 0.99 1.00 1.01 0.99 0.96 0.95 1.07 1.16 1.17 1.16 1.13 1.09 1.07 1.07 1.04 1.01 1.01 1.01 1.02 1.03 1.03 1.03 1.02 1.01 0.99 0.99 0.98 0.96 0.95 0.93 0.92 0.90 0.89 0.88 0.88 0.88 0.88 0.91 0.92 0.90 0.90 0.90 0.89 0.87
0.49 0.49 0.52 0.55 0.57 0.61 0.60 0.63 0.62 0.64 0.66 0.67 0.68 0.68 0.67 0.67 0.67 0.67 0.68 0.69 0.70 0.71 0.74 0.75 0.76 0.79 0.81 0.80 0.80 0.81 0.87 0.88 0.86 0.87 0.86 0.86 0.88 0.89 0.89 0.91 0.92 0.95 0.98 1.01 1.01 1.00 0.99 0.98 1.02 1.09 1.09 1.10 1.10 1.09 1.07 1.08 1.08 1.07 1.05 1.04 1.03 1.03 1.03 1.02 1.01 1.00 0.99 0.97 0.94 0.93 0.93 0.93 0.93 0.91 0.90 0.89 0.89 0.90 0.91 0.92 0.90 0.89 0.89 0.87 0.86 0.88 0.88
0.52 0.50 0.55 0.59 0.61 0.59 0.58 0.59 0.64 0.65 0.65 0.69 0.71 0.71 0.70 0.70 0.70 0.69 0.70 0.71 0.70 0.68 0.72 0.76 0.79 0.80 0.80 0.79 0.80 0.79 0.78 0.80 0.80 0.83 0.83 0.88 0.90 0.90 0.91 0.92 0.92 0.90 0.91 0.93 0.95 0.96 0.98 1.01 1.05 1.06 1.07 1.06 1.07 1.06 1.10 1.12 1.13 1.11 1.07 1.04 1.03 1.02 1.00 0.99 0.98 0.96 0.93 0.92 0.92 0.92 0.91 0.90 0.89 0.88 0.88 0.89 0.90 0.91 0.91 0.90 0.89 0.87 0.86 0.88 0.86 0.86 0.86
0.62 0.62 0.62 0.63 0.67 0.69 0.69 0.66 0.64 0.64 0.65 0.63 0.65 0.67 0.69 0.70 0.70 0.70 0.70 0.69 0.67 0.68 0.72 0.75 0.78 0.78 0.78 0.80 0.81 0.79 0.76 0.74 0.76 0.80 0.83 0.88 0.89 0.89 0.90 0.90 0.90 0.90 0.90 0.91 0.92 0.93 0.96 0.99 1.01 1.03 1.06 1.09 1.09 1.09 1.09 1.09 1.07 1.05 1.04 1.03 1.02 1.00 0.98 0.97 0.95 0.93 0.91 0.90 0.90 0.88 0.87 0.86 0.87 0.89 0.90 0.90 0.90 0.90 0.89 0.87 0.86 0.84 0.85 0.87 0.87 0.85 0.82
0.61 0.60 0.62 0.65 0.68 0.71 0.71 0.70 0.71 0.71 0.71 0.68 0.65 0.66 0.67 0.68 0.68 0.68 0.67 0.67 0.69 0.69 0.67 0.68 0.70 0.72 0.72 0.71 0.70 0.71 0.73 0.76 0.75 0.77 0.78 0.84 0.88 0.92 0.90 0.86 0.86 0.85 0.85 0.86 0.91 0.95 0.97 0.99 1.03 1.05 1.02 1.03 1.04 1.05 1.05 1.04 1.04 1.02 1.01 1.01 1.00 0.99 0.97 0.96 0.95 0.93 0.92 0.90 0.89 0.89 0.89 0.89 0.88 0.89 0.89 0.91 0.91 0.90 0.86 0.83 0.81 0.82 0.85 0.86 0.86 0.83 0.81
0.59 0.60 0.62 0.65 0.68 0.71 0.68 0.70 0.70 0.66 0.67 0.69 0.69 0.66 0.64 0.65 0.66 0.67 0.67 0.66 0.67 0.68 0.70 0.68 0.66 0.64 0.63 0.65 0.66 0.67 0.70 0.75 0.78 0.81 0.85 0.86 0.86 0.88 0.88 0.85 0.85 0.84 0.84 0.80 0.86 0.93 0.95 0.95 0.97 0.99 0.98 0.97 0.97 0.98 1.01 1.02 1.01 1.01 1.01 1.00 0.98 0.96 0.95 0.94 0.93 0.92 0.91 0.91 0.89 0.88 0.88 0.85 0.83 0.82 0.83 0.83 0.86 0.88 0.86 0.85 0.85 0.83 0.84 0.86 0.85 0.82 0.80
0.57 0.60 0.62 0.63 0.65 0.67 0.67 0.69 0.68 0.68 0.68 0.70 0.70 0.69 0.67 0.65 0.65 0.64 0.62 0.61 0.60 0.62 0.66 0.68 0.68 0.68 0.66 0.66 0.66 0.65 0.65 0.67 0.68 0.73 0.79 0.83 0.82 0.81 0.80 0.80 0.80 0.82 0.80 0.81 0.90 0.93 0.94 0.95 0.96 0.96 0.94 0.93 0.93 0.95 0.97 0.98 1.00 1.01 1.00 0.98 0.97 0.95 0.92 0.91 0.90 0.90 0.90 0.91 0.91 0.89 0.86 0.83 0.80 0.79 0.81 0.83 0.84 0.84 0.85 0.87 0.86 0.84 0.82 0.82 0.82 0.81 0.80
0.55 0.58 0.59 0.62 0.63 0.63 0.63 0.66 0.67 0.65 0.66 0.69 0.68 0.67 0.67 0.64 0.61 0.59 0.59 0.59 0.61 0.62 0.63 0.65 0.67 0.64 0.61 0.57 0.57 0.61 0.64 0.66 0.66 0.66 0.69 0.72 0.77 0.77 0.77 0.80 0.84 0.86 0.86 0.91 0.92 0.92 0.94 0.96 0.96 0.94 0.92 0.92 0.93 0.93 0.92 0.93 0.96 0.97 0.95 0.93 0.92 0.90 0.88 0.86 0.83 0.82 0.83 0.85 0.86 0.85 0.84 0.83 0.82 0.81 0.82 0.82 0.83 0.84 0.86 0.85 0.84 0.82 0.82 0.83 0.82 0.81 0.80
0.54 0.54 0.55 0.58 0.59 0.62 0.63 0.65 0.66 0.67 0.68 0.73 0.70 0.64 0.64 0.61 0.59 0.58 0.60 0.61 0.61 0.61 0.59 0.60 0.60 0.59 0.58 0.58 0.57 0.57 0.59 0.62 0.65 0.66 0.67 0.69 0.71 0.71 0.72 0.75 0.80 0.84 0.88 0.89 0.89 0.89 0.91 0.92 0.92 0.91 0.93 0.95 0.95 0.95 0.95 0.93 0.93 0.92 0.90 0.90 0.90 0.88 0.85 0.84 0.81 0.79 0.81 0.83 0.84 0.85 0.85 0.85 0.85 0.85 0.85 0.85 0.84 0.84 0.84 0.84 0.85 0.85 0.85 0.84 0.82 0.82 0.81
0.55 0.55 0.57 0.58 0.59 0.61 0.61 0.63 0.64 0.67 0.68 0.68 0.66 0.65 0.64 0.62 0.60 0.58 0.58 0.58 0.60 0.62 0.61 0.58 0.55 0.56 0.57 0.58 0.59 0.60 0.61 0.63 0.64 0.64 0.65 0.63 0.63 0.66 0.66 0.67 0.77 0.82 0.82 0.82 0.84 0.86 0.88 0.88 0.86 0.85 0.87 0.90 0.93 0.94 0.93 0.93 0.92 0.91 0.92 0.93 0.93 0.91 0.88 0.85 0.82 0.81 0.83 0.86 0.89 0.89 0.90 0.90 0.90 0.89 0.89 0.88 0.89 0.89 0.89 0.89 0.89 0.88 0.88 0.86 0.85 0.83 0.81
0.55 0.57 0.57 0.57 0.57 0.59 0.62 0.64 0.64 0.64 0.69 0.68 0.63 0.62 0.63 0.63 0.62 0.60 0.60 0.60 0.60 0.60 0.59 0.58 0.56 0.54 0.54 0.56 0.59 0.61 0.63 0.63 0.63 0.64 0.64 0.61 0.59 0.60 0.61 0.65 0.74 0.77 0.81 0.80 0.79 0.78 0.78 0.79 0.80 0.79 0.81 0.83 0.86 0.88 0.90 0.91 0.91 0.90 0.91 0.90 0.90 0.91 0.89 0.86 0.83 0.84 0.85 0.86 0.88 0.91 0.92 0.90 0.90 0.90 0.91 0.92 0.92 0.91 0.91 0.91 0.90 0.88 0.86 0.83 0.81 0.79 0.78
0.55 0.56 0.57 0.57 0.57 0.58 0.59 0.61 0.62 0.64 0.65 0.67 0.66 0.64 0.62 0.61 0.61 0.60 0.60 0.60 0.59 0.58 0.58 0.57 0.56 0.54 0.53 0.53 0.55 0.58 0.60 0.62 0.61 0.62 0.63 0.65 0.67 0.67 0.62 0.65 0.72 0.75 0.76 0.76 0.76 0.75 0.75 0.74 0.73 0.73 0.74 0.75 0.76 0.80 0.83 0.86 0.90 0.88 0.90 0.91 0.89 0.86 0.86 0.85 0.85 0.85 0.84 0.84 0.85 0.87 0.88 0.88 0.88 0.88 0.87 0.87 0.87 0.88 0.87 0.86 0.85 0.83 0.82 0.80 0.79 0.78 0.76
0.55 0.56 0.57 0.57 0.57 0.58 0.58 0.58 0.57 0.59 0.62 0.64 0.66 0.65 0.64 0.63 0.62 0.60 0.59 0.58 0.57 0.57 0.56 0.55 0.54 0.54 0.53 0.53 0.53 0.54 0.58 0.60 0.60 0.61 0.59 0.59 0.63 0.68 0.70 0.69 0.69 0.71 0.71 0.72 0.73 0.75 0.75 0.74 0.74 0.75 0.75 0.74 0.73 0.73 0.75 0.78 0.80 0.82 0.84 0.86 0.87 0.85 0.83 0.83 0.83 0.83 0.82 0.81 0.80 0.79 0.79 0.79 0.79 0.80 0.80 0.81 0.82 0.82 0.83 0.83 0.83 0.83 0.82 0.80 0.79 0.78 0.76
0.55 0.55 0.56 0.57 0.58 0.60 0.60 0.59 0.57 0.57 0.59 0.63 0.63 0.62 0.62 0.62 0.62 0.62 0.60 0.57 0.54 0.53 0.54 0.54 0.54 0.55 0.54 0.55 0.55 0.57 0.59 0.60 0.59 0.58 0.54 0.52 0.52 0.55 0.65 0.68 0.70 0.70 0.71 0.70 0.69 0.70 0.71 0.71 0.72 0.73 0.74 0.76 0.76 0.76 0.75 0.77 0.80 0.81 0.81 0.81 0.78 0.76 0.76 0.77 0.78 0.77 0.77 0.77 0.76 0.76 0.76 0.77 0.77 0.78 0.79 0.80 0.80 0.79 0.79 0.80 0.81 0.82 0.82 0.80 0.79 0.76 0.73
0.54 0.55 0.56 0.57 0.57 0.57 0.59 0.60 0.61 0.60 0.60 0.60 0.60 0.61 0.62 0.62 0.61 0.59 0.58 0.55 0.54 0.53 0.53 0.53 0.53 0.53 0.55 0.56 0.57 0.58 0.58 0.58 0.59 0.58 0.56 0.54 0.52 0.55 0.62 0.63 0.65 0.67 0.68 0.67 0.68 0.69 0.70 0.70 0.69 0.69 0.71 0.72 0.75 0.76 0.76 0.77 0.77 0.78 0.77 0.76 0.75 0.74 0.75 0.77 0.77 0.77 0.78 0.78 0.78 0.77 0.76 0.76 0.76 0.76 0.76 0.76 0.77 0.77 0.78 0.78 0.77 0.76 0.76 0.76 0.76 0.74 0.71
0.52 0.54 0.55 0.55 0.57 0.58 0.59 0.61 0.61 0.59 0.58 0.59 0.58 0.57 0.58 0.60 0.60 0.60 0.59 0.58 0.57 0.56 0.56 0.55 0.54 0.55 0.57 0.57 0.56 0.55 0.55 0.55 0.56 0.58 0.59 0.60 0.61 0.61 0.60 0.60 0.61 0.62 0.64 0.63 0.64 0.65 0.66 0.65 0.66 0.66 0.66 0.66 0.68 0.71 0.73 0.74 0.75 0.74 0.73 0.73 0.73 0.72 0.70 0.71 0.73 0.75 0.77 0.78 0.78 0.78 0.79 0.78 0.76 0.73 0.70 0.69 0.69 0.69 0.70 0.70 0.69 0.69 0.70 0.70 0.69 0.66 0.64
0.50 0.51 0.53 0.55 0.55 0.56 0.57 0.59 0.60 0.58 0.55 0.57 0.59 0.58 0.59 0.60 0.60 0.60 0.60 0.58 0.57 0.57 0.57 0.57 0.56 0.55 0.55 0.56 0.56 0.58 0.59 0.57 0.50 0.52 0.58 0.58 0.60 0.61 0.60 0.59 0.59 0.59 0.59 0.59 0.60 0.62 0.63 0.63 0.63 0.62 0.63 0.63 0.63 0.63 0.64 0.67 0.70 0.72 0.73 0.73 0.72 0.70 0.70 0.69 0.70 0.71 0.73 0.74 0.74 0.73 0.73 0.74 0.73 0.70 0.67 0.64 0.62 0.60 0.60 0.61 0.62 0.63 0.64 0.64 0.63 0.63 0.62
0.49 0.50 0.52 0.54 0.54 0.56 0.56 0.56 0.57 0.58 0.59 0.60 0.60 0.60 0.61 0.60 0.61 0.60 0.60 0.60 0.59 0.57 0.56 0.56 0.55 0.55 0.55 0.56 0.56 0.57 0.58 0.59 0.54 0.49 0.54 0.55 0.54 0.54 0.55 0.56 0.56 0.57 0.57 0.58 0.58 0.60 0.60 0.60 0.62 0.62 0.61 0.60 0.60 0.62 0.63 0.65 0.66 0.68 0.69 0.69 0.70 0.69 0.69 0.68 0.67 0.67 0.67 0.67 0.67 0.65 0.63 0.60 0.60 0.59 0.57 0.57 0.57 0.57 0.58 0.59 0.60 0.60 0.61 0.62 0.62 0.62 0.62
0.48 0.49 0.49 0.50 0.52 0.53 0.54 0.54 0.55 0.58 0.60 0.60 0.58 0.59 0.59 0.57 0.56 0.57 0.58 0.59 0.58 0.57 0.57 0.56 0.55 0.55 0.56 0.57 0.57 0.58 0.59 0.58 0.57 0.56 0.55 0.55 0.54 0.53 0.53 0.53 0.52 0.53 0.54 0.56 0.57 0.59 0.60 0.61 0.62 0.62 0.61 0.61 0.61 0.61 0.62 0.63 0.63 0.66 0.68 0.69 0.70 0.70 0.69 0.68 0.67 0.67 0.66 0.64 0.63 0.61 0.59 0.59 0.58 0.58 0.58 0.58 0.57 0.57 0.56 0.57 0.58 0.60 0.61 0.61 0.61 0.60 0.59
0.46 0.46 0.47 0.49 0.50 0.52 0.54 0.55 0.56 0.57 0.57 0.58 0.59 0.60 0.60 0.58 0.57 0.57 0.58 0.58 0.57 0.56 0.55 0.55 0.55 0.56 0.57 0.57 0.57 0.58 0.58 0.58 0.58 0.58 0.57 0.55 0.53 0.53 0.54 0.53 0.51 0.50 0.50 0.52 0.54 0.55 0.58 0.59 0.61 0.61 0.62 0.63 0.62 0.60 0.62 0.61 0.60 0.60 0.59 0.58 0.58 0.60 0.62 0.63 0.61 0.60 0.60 0.61 0.61 0.60 0.60 0.59 0.58 0.58 0.59 0.58 0.56 0.54 0.54 0.54 0.53 0.55 0.57 0.58 0.59 0.58 0.58
0.45 0.45 0.46 0.47 0.49 0.50 0.52 0.54 0.56 0.57 0.58 0.59 0.59 0.60 0.60 0.59 0.57 0.55 0.56 0.58 0.57 0.56 0.55 0.55 0.54 0.57 0.58 0.58 0.58 0.58 0.59 0.59 0.58 0.57 0.57 0.56 0.55 0.54 0.55 0.55 0.54 0.52 0.49 0.49 0.50 0.51 0.51 0.54 0.58 0.61 0.61 0.62 0.63 0.63 0.63 0.61 0.62 0.64 0.63 0.64 0.62 0.60 0.60 0.60 0.59 0.58 0.59 0.61 0.63 0.63 0.63 0.63 0.61 0.59 0.60 0.59 0.58 0.57 0.58 0.57 0.54 0.53 0.53 0.55 0.57 0.58 0.58
Wind_Speed
7 8 10 11 12 13 15 15 15 16 18 20 23 24 23 20 19 19 19 17 17 18 18 17 17 18 20 22 25 27 26 27 30 33 34 33 32 32 33 33 33 34 34 33 32 32 31 31 31 30 30 30 30 30 30 31 31 31 31 30 30 29 29 28 27 26 26 25 25 24 23 23 22 22 22 21 21 20 19 18 18 17 17 16 16 15 15
5 6 8 9 11 12 14 15 15 16 18 20 23 25 24 22 22 21 20 19 18 19 19 18 17 18 19 19 20 24 24 23 26 30 33 33 32 32 34 34 34 34 34 33 33 33 32 31 31 31 31 30 30 30 30 31 31 31 31 31 30 29 29 28 27 27 26 26 25 25 24 23 23 23 23 22 21 20 20 19 18 18 17 17 16 16 16
4 5 6 8 10 11 12 13 13 14 15 17 21 23 23 23 23 21 19 20 19 19 19 18 17 17 17 16 18 22 24 23 24 27 31 32 32 32 33 34 34 34 33 33 33 32 32 32 32 32 32 31 30 30 30 31 31 31 31 31 30 30 29 29 28 27 27 26 26 25 24 24 24 24 24 23 22 21 20 20 19 18 18 17 17 17 16
3 3 4 6 8 9 11 12 12 11 12 14 18 20 22 24 23 20 19 19 19 18 17 16 16 16 15 15 17 20 23 24 24 26 29 30 31 31 32 32 33 33 33 32 32 32 32 32 33 32 32 31 31 30 31 31 31 31 32 31 31 30 30 29 29 28 27 27 26 26 25 24 25 25 24 23 23 22 21 20 19 18 18 18 18 17 17
2 3 3 5 6 6 9 12 12 11 12 13 15 17 20 23 23 21 20 19 19 17 15 15 17 16 15 14 14 16 19 21 22 24 26 27 29 30 31 31 32 33 33 33 32 32 31 32 33 33 32 32 31 31 31 31 32 32 32 32 31 30 30 30 29 29 28 27 27 26 25 25 25 25 25 24 23 22 21 21 20 19 18 18 18 18 17
2 3 4 4 4 6 9 11 12 13 14 15 15 16 18 21 24 24 22 20 18 17 15 15 17 17 16 14 13 15 18 19 20 21 23 25 27 29 30 31 32 32 32 31 31 32 32 32 32 32 33 32 31 31 31 31 32 32 32 32 31 31 30 30 30 30 29 28 28 27 26 26 26 26 25 25 24 23 22 21 20 19 19 18 18 18 18
3 3 4 1 4 7 9 10 12 14 16 17 17 18 19 19 21 23 24 23 21 19 17 17 17 17 17 15 13 15 18 20 21 21 23 25 28 29 30 31 31 31 30 30 31 32 32 32 32 32 32 31 31 31 31 31 31 32 32 32 31 31 31 31 31 31 30 29 29 28 27 27 27 26 26 25 23 23 22 21 21 20 19 19 19 19 19
3 3 3 2 5 9 10 10 10 10 13 16 17 17 18 18 19 22 25 26 25 23 22 21 20 19 17 16 16 18 19 19 21 23 24 25 26 28 29 30 31 30 30 30 31 32 32 31 32 32 32 31 31 31 31 31 31 31 32 32 32 31 31 31 31 31 30 29 29 28 27 28 28 27 26 25 24 23 23 22 21 20 20 19 19 20 20
3 3 4 5 7 9 8 8 8 8 10 14 16 18 18 18 18 21 23 25 25 25 24 24 23 20 17 16 17 19 19 19 20 22 23 24 24 25 26 27 29 31 31 32 32 31 31 31 32 32 32 32 32 32 31 31 31 31 32 32 32 32 32 32 32 31 30 30 29 29 29 29 28 27 26 25 24 23 23 22 21 21 20 20 20 21 21
4 4 6 6 6 5 4 6 7 7 9 12 15 17 18 17 17 19 21 22 22 22 23 24 22 20 19 18 18 20 21 20 19 20 21 23 25 25 24 24 26 28 30 32 32 31 32 32 32 32 32 32 32 32 32 32 31 31 32 32 32 32 32 32 32 31 31 30 29 29 30 30 28 26 25 24 24 23 23 22 22 22 21 20 21 22 22
4 4 5 5 4 5 5 7 7 7 8 11 13 14 16 17 17 17 18 20 20 20 21 22 21 20 21 21 20 22 23 21 19 19 20 22 24 25 26 25 25 27 28 29 30 31 32 33 33 33 33 32 32 32 32 32 32 32 32 32 32 32 32 32 32 32 31 30 30 30 30 29 27 24 23 24 24 23 23 23 23 22 21 21 21 22 22
6 6 5 5 6 6 7 9 9 7 7 8 10 13 16 17 16 17 18 19 20 20 20 21 20 21 22 20 21 25 26 22 20 18 18 20 22 24 25 25 25 26 27 27 28 30 31 32 33 33 33 33 32 32 32 32 32 32 32 32 32 32 31 32 32 32 31 30 29 29 28 27 25 23 23 23 24 24 23 23 22 21 22 22 22 22 22
7 7 6 7 7 7 9 10 10 7 6 7 11 14 16 15 15 17 18 19 20 21 21 20 20 20 20 18 20 26 26 23 22 20 18 19 20 22 23 24 24 25 26 27 27 28 29 30 31 32 33 33 33 33 33 33 32 32 31 31 31 31 31 32 32 31 30 29 28 27 27 26 24 23 23 23 23 23 23 22 22 22 22 22 22 21 21
7 7 7 8 8 8 9 11 10 8 6 8 11 13 14 15 16 16 17 18 20 20 21 21 21 20 19 17 18 23 25 24 23 22 20 20 20 21 22 23 24 24 25 26 27 27 28 29 30 31 32 33 33 33 33 33 32 31 30 30 31 31 31 31 31 30 29 28 28 27 26 25 23 23 23 23 23 23 23 23 23 22 22 21 21 20 20
7 7 8 8 8 9 11 12 10 8 6 9 11 11 12 14 15 16 17 18 19 19 20 21 20 19 18 18 18 20 23 24 23 21 20 20 20 20 20 22 24 25 25 25 26 26 27 28 29 30 31 32 32 33 33 33 32 31 30 30 30 31 31 31 31 30 29 28 28 27 25 23 23 22 23 23 24 24 24 23 22 22 21 21 21 20 20
7 7 7 7 9 13 14 12 10 9 8 8 9 10 11 12 13 15 16 17 18 19 20 20 19 18 17 17 17 18 21 22 22 20 19 18 19 19 19 20 22 24 25 26 26 26 26 27 29 30 31 31 32 32 33 32 32 31 30 30 30 30 30 30 30 29 28 28 27 26 24 24 23 23 23 24 24 23 23 23 22 22 22 21 20 19 20
8 8 10 10 11 14 14 11 11 12 10 8 8 9 11 12 12 12 14 16 18 19 20 20 18 17 17 18 18 19 20 21 20 20 19 18 18 18 18 19 20 21 23 25 26 27 27 29 30 30 31 32 32 33 33 32 31 30 29 30 30 30 30 30 29 29 28 27 26 25 24 24 24 24 24 23 23 22 23 23 22 22 22 21 21 20 20
10 10 11 12 12 13 12 11 11 11 9 6 7 8 9 11 11 12 13 15 16 18 20 19 18 17 18 18 18 19 20 20 19 19 19 18 18 19 19 19 19 20 21 23 24 26 27 29 31 31 32 33 34 34 33 32 31 30 29 29 30 30 29 29 28 28 28 27 26 25 24 25 25 24 24 23 22 22 23 23 22 22 21 20 21 21 21
9 10 10 10 11 12 11 11 11 9 7 4 5 7 8 9 10 11 12 14 14 16 18 18 18 18 18 18 18 19 20 21 21 20 19 19 20 20 21 21 20 20 21 22 24 24 25 27 30 32 33 34 34 33 32 32 31 29 29 29 30 29 28 28 28 27 26 26 25 25 25 24 24 23 23 22 22 22 22 22 22 21 20 21 22 22 22
8 9 10 11 12 12 11 10 9 8 6 5 4 6 7 7 7 8 10 11 11 12 15 17 17 18 18 18 18 19 20 22 22 22 21 21 21 22 22 22 22 22 23 24 24 25 25 25 27 29 31 32 32 32 31 31 29 28 28 28 28 28 28 28 27 26 26 25 25 25 24 24 23 23 22 22 22 22 22 22 21 21 21 22 22 22 22
9 10 11 11 11 11 10 9 9 7 6 6 5 5 5 5 5 5 6 8 9 10 11 14 15 16 16 17 18 18 20 21 22 22 21 21 21 21 22 22 23 23 24 24 25 26 26 25 25 26 27 29 30 30 30 28 27 26 27 27 27 27 27 26 26 25 25 25 24 24 23 23 23 23 22 22 22 22 22 22 22 22 22 22 22 22 22
9 10 10 10 10 10 10 11 10 8 7 5 4 4 4 4 3 2 3 6 8 7 7 9 11 13 15 16 16 17 18 19 20 21 21 21 21 21 21 21 22 23 23 24 25 25 25 25 24 24 24 25 26 27 26 26 26 26 26 25 25 26 26 25 25 25 24 24 24 23 23 23 22 22 22 22 23 23 23 23 23 23 22 21 21 21 22
10 11 11 10 9 9 10 11 10 8 6 6 5 5 5 4 3 3 4 5 5 4 3 5 8 9 11 12 13 14 15 16 17 18 20 20 20 22 22 22 21 22 22 23 23 23 24 24 24 24 24 24 25 24 24 25 25 25 25 24 24 25 25 24 24 24 23 23 23 23 23 22 22 21 21 22 22 23 22 23 23 22 21 21 21 21 21
10 11 11 9 8 9 10 11 10 7 5 5 5 5 6 7 6 5 4 3 1 1 2 4 6 7 8 9 10 11 12 13 14 15 16 17 18 20 22 22 21 21 21 21 21 21 22 24 24 25 26 26 25 24 24 25 25 24 24 24 24 24 23 23 24 24 23 23 23 23 22 22 22 22 22 22 22 22 22 22 22 22 22 21 21 21 20
10 11 10 9 8 9 10 9 8 7 5 4 4 4 6 6 7 6 4 2 0 0 0 2 5 7 8 9 9 8 8 9 10 10 12 14 15 16 18 19 20 20 19 19 18 18 21 23 24 26 27 27 25 24 23 24 24 24 23 23 23 23 23 23 24 24 24 23 23 23 23 23 22 22 23 23 23 23 22 22 22 22 22 22 22 21 21
11 11 10 9 9 9 9 8 7 7 6 4 3 4 5 5 6 6 4 2 1 0 1 1 3 5 7 8 8 7 6 7 7 7 7 9 10 12 13 15 16 17 17 16 16 16 18 20 22 24 26 25 24 23 22 22 23 23 23 23 23 23 23 24 24 24 23 23 23 23 23 23 23 23 23 23 23 23 23 23 23 24 24 23 23 22 21
10 9 9 9 9 9 9 8 7 7 6 5 4 4 5 5 5 5 3 2 2 1 1 1 2 4 5 5 5 6 6 6 6 6 6 6 7 8 9 11 12 13 14 14 14 15 16 17 19 22 24 23 22 21 21 21 21 21 22 22 22 22 23 23 23 23 23 23 23 23 23 23 23 23 23 23 23 24 24 25 25 24 24 24 24 23 22
10 10 9 8 9 10 9 8 7 7 7 6 5 6 6 6 5 4 2 2 2 2 2 2 2 3 3 3 3 4 5 5 4 4 5 6 6 6 6 8 9 10 12 13 14 15 15 15 17 20 22 22 21 20 20 20 20 20 21 21 21 22 22 22 22 22 22 22 22 22 23 22 22 23 23 23 24 25 25 26 26 26 26 25 24 23 23
10 10 10 9 10 10 10 9 9 8 7 7 7 7 6 4 3 3 2 2 2 2 2 3 3 3 4 4 3 3 4 5 4 3 4 5 6 6 7 7 8 8 10 11 13 13 14 14 15 18 20 21 20 20 19 20 20 21 21 21 21 22 22 22 22 22 22 22 22 22 23 23 23 23 24 25 25 25 25 26 27 27 27 25 24 23 23
11 11 10 10 10 10 9 8 8 8 7 7 7 6 4 2 1 1 2 3 3 3 3 3 3 4 4 5 5 4 4 4 5 4 4 5 5 6 7 8 8 8 9 10 11 12 14 15 14 15 18 19 20 20 20 20 21 21 21 21 22 22 23 23 23 23 23 23 23 23 24 24 24 25 25 25 26 26 25 26 26 26 26 25 24 23 22
13 12 11 10 10 10 9 8 7 6 7 7 6 4 3 3 2 2 3 3 3 4 4 4 4 4 4 4 5 5 5 5 5 5 5 5 5 6 7 8 8 9 10 11 11 12 14 14 14 14 14 16 17 19 20 20 20 21 20 20 21 21 22 22 23 23 23 23 24 24 25 25 25 25 25 25 26 26 26 26 26 25 25 24 24 23 23
12 11 10 10 10 10 10 9 8 7 7 6 5 4 4 4 4 4 4 5 5 5 5 5 4 4 4 4 4 4 5 5 5 5 5 5 6 7 8 9 9 10 11 12 13 13 14 14 15 14 14 14 15 17 19 20 20 20 20 20 20 20 21 22 22 22 23 23 24 25 25 25 25 25 26 26 26 26 26 26 26 25 25 25 25 24 24
10 10 10 10 10 10 11 11 9 8 7 6 5 5 5 5 5 5 5 6 6 6 6 6 5 5 4 4 4 4 4 4 4 4 5 6 6 7 8 9 10 11 11 12 13 14 14 14 14 14 14 14 15 17 18 19 19 20 20 20 20 20 21 21 21 22 22 23 24 24 24 24 25 25 26 26 26 26 26 26 25 25 25 25 25 25 25
10 10 10 10 10 9 10 11 10 9 8 8 7 7 6 6 6 6 6 6 6 6 6 6 6 5 5 5 5 5 5 5 5 5 6 6 7 8 8 9 10 11 12 13 13 14 15 15 14 14 14 15 16 17 17 18 18 19 19 20 20 20 20 21 21 21 22 23 23 23 23 23 24 24 25 25 25 25 25 25 25 25 25 25 25 24 24
11 11 11 11 10 9 9 10 10 10 10 10 9 9 8 7 7 6 7 7 7 7 7 7 6 6 6 6 6 6 7 7 7 7 7 7 8 8 8 9 9 10 11 12 13 14 15 15 15 15 15 15 16 17 17 18 18 19 19 19 20 20 20 20 20 21 22 22 22 22 22 23 23 23 24 24 24 24 25 25 25 25 24 24 24 23 23
11 11 11 10 10 10 10 10 10 10 10 10 10 9 9 8 7 7 7 7 7 8 8 8 7 7 8 8 8 8 8 7 8 8 9 9 9 9 9 9 9 10 10 11 13 14 14 15 15 15 15 16 16 17 18 18 18 19 19 20 20 21 20 21 21 21 22 22 22 22 22 22 22 22 23 24 24 24 24 24 24 24 24 23 23 22 22
12 12 11 10 10 10 10 10 10 10 10 10 10 9 9 8 8 7 7 7 8 8 8 8 8 8 9 9 9 9 9 9 8 9 9 10 10 10 9 9 10 10 11 11 12 13 13 14 14 15 15 16 17 18 18 18 19 19 20 21 21 21 21 21 21 22 22 22 22 21 21 21 21 22 22 23 23 23 24 23 23 23 23 23 22 22 22
13 12 11 10 10 10 10 10 10 10 10 10 10 10 9 8 8 7 7 7 8 8 8 8 8 9 9 9 10 10 11 10 10 10 10 10 10 10 11 11 11 12 12 13 13 13 14 14 14 14 15 15 16 17 17 18 18 19 19 20 20 20 20 20 20 21 21 21 21 21 21 21 21 21 21 22 22 22 23 23 22 22 22 22 21 22 22
14 13 12 12 11 10 10 10 10 10 10 10 11 11 10 9 8 8 8 8 8 8 8 8 8 9 9 10 11 11 12 12 11 11 11 11 11 11 11 12 12 13 13 13 13 13 14 15 15 15 15 15 16 16 16 17 17 18 18 18 18 18 18 18 19 19 20 21 21 21 20 20 20 20 20 21 21 21 21 21 21 21 21 21 21 22 22
14 14 13 13 12 11 11 11 11 11 11 11 11 11 11 10 9 9 8 9 9 9 8 8 9 9 10 11 11 12 12 12 12 12 12 12 12 12 12 12 12 13 13 13 13 13 14 14 15 15 16 16 16 16 16 16 16 17 18 18 18 18 18 18 18 18 19 20 21 21 20 20 20 20 20 20 21 21 21 21 21 21 21 21 21 21 22
14 14 14 13 13 13 13 13 12 12 12 12 11 11 11 11 10 10 10 9 9 9 9 9 10 10 10 10 11 12 12 12 13 13 12 12 13 13 14 14 14 14 14 14 14 14 14 15 15 16 16 17 17 18 17 17 17 17 18 18 18 18 18 18 18 18 18 19 19 20 20 19 19 19 19 20 20 21 21 21 21 21 21 21 21 21 22
15 15 14 14 13 13 14 14 13 13 13 13 12 11 10 10 10 10 10 10 10 10 10 10 10 10 10 10 10 10 11 12 12 12 12 13 13 14 14 14 15 15 15 15 15 15 15 16 16 16 17 17 18 18 18 18 18 18 18 18 18 18 18 17 18 18 18 18 19 19 19 19 19 19 19 20 20 20 21 21 21 21 22 22 22 22 22
15 15 14 14 13 13 13 14 14 13 13 13 12 12 11 10 10 10 11 11 11 11 11 11 11 11 11 10 10 10 11 11 11 11 12 12 13 13 13 14 15 16 16 16 16 16 16 16 16 17 17 17 17 18 18 18 18 18 18 18 18 17 17 17 17 18 18 18 18 19 19 19 19 20 20 20 21 21 21 22 22 22 22 22 22 22 23
15 15 14 14 14 13 13 13 14 13 13 13 13 12 12 12 12 12 11 11 11 11 11 11 11 11 11 10 10 10 10 11 11 11 11 12 12 12 12 13 14 15 15 16 16 16 16 16 16 16 17 17 17 17 17 17 18 18 18 18 18 18 18 18 18 18 18 18 18 19 19 19 19 20 20 21 21 21 22 22 23 23 23 23 23 23 23
15 15 14 14 14 13 13 13 13 14 14 14 13 12 12 12 12 12 12 11 11 10 10 10 10 10 10 9 9 9 9 9 10 10 11 11 12 12 12 12 12 13 13 13 14 15 15 15 15 15 16 16 16 16 16 16 17 18 18 18 18 18 18 18 18 19 19 19 18 18 18 18 18 19 20 20 21 21 22 22 23 23 24 24 24 24 24
16 15 15 14 14 14 14 13 13 13 14 14 13 12 12 12 12 12 11 10 10 10 10 10 9 9 9 9 9 9 9 9 8 9 10 10 11 11 12 12 12 12 12 12 13 14 14 14 14 14 14 15 15 16 16 16 17 17 17 17 18 18 18 18 19 19 19 19 19 18 18 18 18 19 20 20 21 22 22 23 23 24 24 24 24 24 24
15 14 14 14 14 14 13 13 12 12 12 12 12 12 12 12 12 11 11 10 9 9 9 9 9 9 9 9 9 10 10 10 9 8 9 9 10 10 11 11 12 12 12 12 12 12 13 13 13 14 14 14 15 15 15 16 16 17 17 17 17 17 18 18 18 19 19 19 19 19 20 20 19 20 20 21 21 22 22 23 23 23 24 24 24 24 24
15 14 14 14 14 13 12 12 12 11 11 11 12 11 11 11 11 11 10 10 9 9 9 9 9 9 9 9 9 10 11 11 10 10 10 10 10 10 10 10 11 11 11 11 11 11 12 12 12 13 13 14 14 15 15 16 16 16 17 17 17 17 16 17 17 18 18 19 19 20 20 20 20 20 20 20 20 20 21 21 21 22 22 23 23 23 23
14 14 14 13 13 13 12 12 12 12 12 12 12 12 12 12 12 12 11 11 11 10 9 9 9 9 9 9 9 9 10 10 10 10 10 10 10 10 10 10 9 9 10 10 10 11 11 11 11 11 12 13 13 14 14 15 15 16 16 16 17 16 17 17 17 18 19 19 20 20 20 20 20 20 20 20 20 20 20 20 21 21 21 21 22 22 23
13 13 13 13 12 12 12 12 12 12 13 13 13 13 13 14 14 13 13 12 11 11 10 10 9 9 9 9 9 9 10 10 10 10 10 10 10 10 10 9 9 9 9 10 10 10 10 10 11 11 12 12 13 12 13 13 14 15 15 16 17 17 17 17 18 19 19 20 20 20 20 20 19 19 20 20 20 20 20 21 21 21 21 21 21 21 22
13 13 13 12 12 12 12 12 12 12 13 14 14 13 12 12 12 12 12 11 11 11 11 10 9 9 9 9 10 10 10 10 10 10 10 10 10 10 10 10 9 9 9 10 10 10 10 11 11 11 11 11 12 12 12 12 13 13 14 14 15 15 16 16 16 17 18 18 19 19 19 19 19 20 20 20 20 20 20 20 21 21 21 21 21 21 21
13 13 12 12 12 12 12 12 12 12 12 12 12 12 11 11 10 10 10 10 11 11 12 12 11 10 10 10 10 10 10 10 10 10 10 10 11 11 10 10 10 10 10 10 10 10 11 11 11 11 11 11 11 12 12 12 12 12 13 13 13 14 14 15 15 16 16 16 16 17 17 17 17 18 18 18 18 18 19 19 19 19 19 20 20 20 20
Wind_Direction
209 214 222 225 219 215 214 217 222 227 226 222 218 218 218 218 219 220 221 220 223 224 224 229 232 229 228 228 226 228 230 227 223 218 214 214 215 215 214 213 212 210 209 210 213 215 215 215 216 218 218 218 219 219 218 218 217 216 217 218 219 220 220 220 221 223 225 226 227 228 228 227 229 229 229 229 232 234 236 238 241 243 245 247 249 250 249
227 223 221 216 212 213 215 219 223 225 226 224 220 220 221 223 223 222 222 227 228 223 223 229 229 224 226 230 228 228 227 227 228 224 217 215 217 216 215 214 212 211 210 211 213 214 216 217 216 216 217 218 218 218 218 217 217 217 217 218 219 219 220 220 221 223 225 227 228 228 228 228 229 229 228 229 232 234 235 238 240 242 244 245 247 248 248
240 229 218 212 209 212 219 224 224 224 229 226 220 220 222 223 223 219 218 226 228 220 219 227 228 222 225 231 229 227 226 227 231 229 222 219 219 217 216 215 213 212 212 212 212 214 217 218 216 215 216 218 219 219 219 218 217 217 218 218 219 220 220 220 221 223 225 227 228 228 228 228 228 229 228 229 232 233 235 237 239 241 243 244 245 247 248
248 240 237 232 224 220 225 230 228 225 228 224 220 221 221 219 220 220 220 222 221 216 218 225 226 220 219 226 227 225 226 228 228 226 223 222 220 218 216 215 213 212 211 211 211 214 216 216 215 216 216 218 220 221 220 219 217 217 218 219 219 220 220 220 222 224 225 227 228 228 228 228 228 229 228 229 231 233 234 236 238 239 241 243 245 247 248
289 291 278 258 242 231 230 228 223 223 227 225 223 225 223 220 219 221 222 218 214 216 220 220 220 218 216 223 224 218 220 223 222 220 218 217 216 216 214 212 213 213 212 212 212 213 214 215 215 216 216 217 220 221 220 219 217 217 218 219 219 220 221 221 222 224 226 227 228 228 228 228 228 228 228 229 231 232 233 235 236 237 240 243 245 247 249
301 298 293 267 230 222 228 225 223 229 234 232 228 228 227 225 221 221 223 221 218 220 220 215 216 215 212 219 223 215 212 213 213 215 216 212 210 212 212 211 213 214 213 213 213 212 213 215 216 216 216 218 220 220 219 218 217 217 218 218 219 221 221 221 223 225 226 227 228 228 228 229 228 228 227 227 228 230 232 234 235 236 239 242 245 248 250
294 313 333 314 217 233 247 245 240 238 234 231 232 233 231 229 227 226 228 227 225 225 223 220 218 214 212 217 223 220 217 214 211 214 218 215 210 209 211 212 213 214 213 213 213 214 215 216 216 216 217 218 219 219 218 217 217 216 217 218 220 220 221 222 224 225 225 226 227 227 228 228 227 226 224 224 226 230 232 233 235 236 239 243 246 248 251
304 333 350 318 262 274 276 262 250 244 236 233 235 234 233 233 232 229 228 229 230 231 231 228 224 221 222 226 226 223 221 217 214 214 218 218 211 207 209 211 212 213 213 214 214 216 217 216 215 215 217 217 217 217 217 216 216 216 217 218 219 220 221 222 224 224 225 227 227 227 228 227 225 224 223 224 227 231 232 234 235 237 240 244 247 249 252
303 311 313 308 300 298 287 259 246 245 242 235 228 226 231 234 232 230 228 229 233 233 233 232 229 225 227 232 230 224 216 211 212 214 216 216 211 206 208 211 212 213 214 214 215 216 216 215 215 216 217 217 216 217 217 217 217 218 219 219 220 221 222 223 224 224 226 228 228 228 227 224 222 223 224 225 229 231 232 233 235 238 242 246 249 251 253
303 306 308 317 318 308 285 264 257 249 241 230 220 222 231 232 230 230 228 228 232 232 230 230 228 222 223 229 227 217 210 212 217 220 219 217 213 211 212 213 214 214 214 214 216 216 216 216 216 216 216 216 216 217 217 217 218 219 220 221 221 222 223 223 223 225 227 228 229 229 228 224 221 221 222 224 228 230 231 234 237 239 243 247 250 252 253
297 299 303 306 300 292 288 286 280 263 244 231 222 225 232 230 230 233 230 229 231 230 226 224 222 219 221 224 221 212 211 219 226 224 220 216 213 214 216 216 215 215 216 216 217 217 217 217 217 217 217 217 217 218 219 219 219 221 221 221 221 222 223 223 223 225 227 228 230 231 228 222 220 221 223 224 228 230 233 235 238 240 244 248 250 253 254
286 288 292 289 283 291 304 306 298 280 257 238 223 223 225 227 231 235 233 231 231 230 227 221 217 218 220 220 219 215 215 223 227 221 216 214 212 214 216 215 215 216 216 217 217 216 216 217 218 218 218 218 218 219 219 219 220 221 222 222 222 222 222 223 223 225 226 228 231 232 228 222 222 224 225 227 229 230 232 234 237 242 246 249 250 253 254
285 285 290 290 290 303 319 320 314 299 272 240 220 219 222 227 235 237 233 231 229 229 228 222 217 220 224 227 226 220 218 223 223 218 216 216 215 216 216 217 217 216 216 216 216 216 216 216 216 217 217 218 218 218 218 219 220 222 222 222 222 221 221 222 223 224 225 227 231 232 228 225 225 226 226 227 228 229 231 234 239 244 247 249 251 253 255
292 291 295 295 295 310 321 321 324 324 288 238 224 227 232 234 238 238 235 231 227 226 227 224 221 225 230 234 231 223 219 220 219 219 222 222 222 222 222 221 219 217 216 217 216 217 216 215 216 216 216 217 217 217 218 219 221 222 222 221 221 220 220 221 222 223 224 227 230 230 228 226 225 225 226 228 230 232 234 238 241 244 247 250 252 255 257
301 305 308 303 301 313 321 320 323 327 295 249 239 241 241 240 239 238 237 233 228 227 228 226 225 229 233 234 230 224 221 219 219 222 225 224 224 225 225 225 223 220 220 220 218 218 218 217 217 217 216 216 217 218 218 219 220 221 221 220 218 218 218 220 221 222 224 227 229 228 227 225 225 226 227 229 231 234 236 239 242 244 248 252 254 256 258
304 304 302 299 302 310 315 315 313 310 294 263 246 240 239 241 241 238 238 237 232 231 232 229 226 229 233 233 229 226 226 223 220 221 223 222 224 225 225 226 225 223 223 222 220 221 222 221 221 219 218 217 217 218 218 218 218 219 219 217 215 215 216 218 220 222 225 227 227 226 225 226 227 228 229 230 233 235 237 240 242 246 250 253 254 256 258
296 293 292 297 306 310 310 309 310 309 299 272 246 235 235 239 242 240 241 242 239 236 235 231 225 225 230 232 229 228 230 229 224 221 222 223 224 226 227 227 223 221 223 223 222 223 224 223 222 221 219 218 217 217 217 216 215 215 215 214 213 213 215 218 220 222 224 226 226 225 225 226 228 229 230 231 233 236 239 242 244 248 251 253 253 256 260
299 297 296 299 304 307 308 311 315 315 308 279 249 240 239 242 246 248 245 244 242 240 236 231 226 227 230 231 229 229 233 237 234 227 225 226 225 225 228 227 222 219 221 224 226 227 227 225 223 221 220 219 217 216 215 212 212 212 212 211 211 212 215 218 220 221 222 223 224 225 226 227 228 228 229 231 234 237 241 244 246 249 251 252 253 257 261
311 307 302 301 303 304 308 315 319 322 324 305 259 243 243 244 247 249 247 243 239 237 235 231 228 230 232 231 231 232 235 239 240 237 235 234 230 227 229 229 226 224 224 226 229 232 233 232 229 225 221 219 216 214 210 208 209 210 210 210 210 211 214 217 218 219 220 220 222 224 225 225 226 228 230 233 236 238 242 245 248 249 251 253 255 258 261
314 309 306 308 309 308 310 315 319 323 325 318 288 257 249 246 244 243 242 240 235 234 234 232 228 229 232 232 232 234 236 237 237 236 237 237 234 232 232 231 230 230 230 231 232 235 239 242 240 232 224 218 215 211 206 205 206 207 208 208 209 212 214 216 216 218 219 219 220 222 223 224 226 230 232 234 238 240 243 245 248 250 252 253 256 259 262
318 316 316 319 320 319 317 318 321 322 318 311 295 271 261 257 251 246 244 241 237 233 233 231 227 225 228 231 233 235 237 235 232 230 231 233 234 235 235 233 231 232 233 234 234 235 238 241 241 235 226 219 213 207 203 203 203 203 205 207 210 212 215 215 216 217 218 218 219 221 223 225 228 231 234 237 240 243 245 247 250 252 254 256 258 260 262
323 322 321 323 324 322 319 317 319 322 319 311 292 272 271 275 269 265 263 251 237 225 224 228 224 220 222 228 232 233 233 232 230 228 229 231 233 235 235 234 233 233 233 234 233 233 235 236 234 231 225 216 207 202 201 200 200 201 204 208 210 212 213 213 213 214 215 217 219 221 223 226 229 234 237 240 243 245 247 249 251 254 257 259 260 260 262
314 314 314 317 318 316 315 315 315 315 314 307 290 266 262 274 277 263 259 250 228 212 226 232 223 216 217 220 222 224 228 231 231 229 229 231 234 235 235 233 234 234 234 233 233 233 232 230 227 223 215 207 201 200 200 200 200 202 204 206 208 210 210 210 211 212 214 218 221 223 226 228 232 236 240 243 246 248 249 250 252 256 259 261 261 261 263
305 311 314 317 315 313 316 318 316 310 305 302 294 272 261 269 278 277 275 272 221 191 239 240 223 214 209 206 209 217 227 232 232 232 233 233 233 235 235 233 231 230 230 231 234 232 228 223 218 212 207 203 202 202 201 201 201 202 203 205 207 207 208 210 211 214 217 220 222 225 228 232 235 238 242 245 247 249 250 252 254 256 259 260 261 261 261
299 308 313 313 310 312 319 322 320 315 310 304 299 278 261 268 285 294 296 302 308 146 247 230 216 209 204 203 210 221 227 227 227 231 235 233 231 232 233 229 225 223 224 226 229 227 220 215 211 207 204 203 201 200 200 201 201 201 202 204 205 207 208 211 214 216 219 221 224 227 230 234 238 241 244 246 247 249 252 254 255 257 258 259 259 259 259
296 304 309 308 307 313 322 325 325 328 328 321 305 282 269 276 293 298 288 255 232 226 76 128 183 191 197 206 216 221 218 217 221 226 228 226 223 224 225 223 220 218 217 217 218 216 212 210 208 204 200 198 196 196 200 201 201 202 203 203 204 207 210 213 216 219 221 223 227 230 234 238 242 245 247 248 249 249 252 254 255 257 259 260 258 257 258
297 302 305 305 304 310 316 315 316 322 326 321 307 294 291 292 293 290 276 249 243 237 194 158 149 156 174 199 214 217 213 211 217 224 221 214 214 219 220 217 214 213 210 209 210 208 206 207 207 202 197 194 193 194 197 199 201 203 205 206 207 210 213 216 219 222 224 227 231 235 239 243 246 247 249 251 252 252 252 252 252 254 257 259 257 254 256
298 301 301 297 293 297 303 305 304 306 308 307 301 296 294 291 283 277 279 282 270 252 244 241 204 174 180 201 219 223 218 212 214 222 219 212 213 216 213 210 211 210 205 202 205 206 204 205 206 202 197 195 195 194 195 198 201 204 207 210 213 215 217 219 222 225 228 233 237 240 243 246 247 248 249 252 254 254 253 251 252 254 257 257 254 253 254
297 301 298 291 286 289 295 301 303 300 299 302 302 295 286 279 272 272 290 302 292 277 270 262 246 229 222 223 224 223 218 215 218 226 222 215 214 209 203 203 205 203 196 195 199 198 193 191 194 196 196 196 198 199 200 202 205 207 210 213 216 219 222 225 227 231 235 239 242 244 246 247 248 249 251 253 255 255 254 254 254 256 255 253 251 252 255
297 301 299 295 293 294 296 300 302 299 296 298 298 293 284 276 275 290 296 296 292 284 278 270 260 249 240 235 233 229 222 216 220 225 223 216 209 202 197 196 198 196 194 194 194 190 185 184 190 196 199 200 202 205 207 209 211 213 215 218 222 224 226 228 231 235 238 241 243 245 247 249 251 253 253 254 254 254 255 255 255 255 253 249 248 251 254
295 298 300 299 297 299 300 298 294 291 290 289 288 290 291 290 292 299 297 291 282 275 271 272 271 263 251 242 236 233 234 235 233 231 229 222 213 206 202 201 202 204 204 203 200 195 192 193 199 205 207 206 206 209 212 215 217 219 221 225 228 229 229 231 234 237 239 242 244 247 249 251 253 254 255 254 254 254 255 255 255 254 251 248 248 251 253
293 296 301 302 298 298 299 296 290 287 287 286 284 282 280 278 278 285 291 289 284 277 273 272 271 264 254 248 242 236 240 247 245 238 234 231 226 221 216 212 210 208 207 207 207 205 204 208 214 219 220 218 215 215 217 219 220 222 225 229 231 233 233 235 238 240 243 246 248 250 252 253 254 253 253 253 254 255 255 254 253 252 250 249 250 251 253
294 293 294 296 296 296 296 293 287 280 277 277 275 272 270 271 272 275 279 283 286 282 273 267 264 258 249 248 248 243 242 246 245 239 237 236 234 231 228 225 222 218 215 214 214 214 218 224 228 228 226 224 222 222 223 223 225 227 230 232 235 236 237 239 241 244 247 249 251 252 253 253 253 253 253 254 255 256 254 252 251 251 251 251 252 252 252
291 284 281 280 282 285 287 287 284 278 272 267 265 266 268 268 268 270 274 277 278 275 269 262 260 257 250 247 248 249 249 250 248 245 245 246 243 237 232 229 229 229 229 229 230 230 232 235 235 233 231 230 230 230 229 228 229 232 234 236 237 238 240 242 244 246 247 249 250 252 253 253 253 253 254 254 254 253 251 251 251 251 251 252 252 253 253
295 290 285 279 275 275 279 281 280 276 270 264 260 261 262 262 264 268 272 271 269 268 267 265 261 259 257 255 253 253 252 252 252 252 251 251 250 246 239 232 231 233 235 238 240 240 239 238 238 237 236 235 234 233 232 232 233 235 237 237 237 238 241 243 245 247 248 248 248 250 251 252 253 253 253 253 252 251 251 251 250 250 250 251 252 254 255
301 299 294 286 276 273 274 273 272 271 269 264 260 258 257 257 261 266 268 268 267 266 266 267 265 264 263 259 255 252 248 246 251 256 255 251 249 248 244 239 237 237 239 242 244 243 242 241 240 239 239 240 239 239 238 238 238 239 240 240 240 241 243 245 246 247 248 248 248 249 250 251 252 253 252 251 250 250 251 251 251 250 250 250 252 253 254
303 300 295 289 281 274 269 268 270 273 271 262 257 257 256 255 257 260 263 268 270 266 263 262 262 262 261 259 256 255 251 246 246 250 250 248 247 246 245 245 244 243 244 247 247 245 244 243 242 242 243 243 243 243 242 242 242 242 242 242 243 244 245 245 245 246 247 248 249 249 250 251 252 253 252 251 249 249 249 250 251 251 250 250 251 252 253
299 296 293 290 286 278 270 268 272 276 270 259 256 257 255 252 254 257 261 267 270 266 261 258 256 257 260 261 260 260 259 254 250 248 248 249 249 249 250 253 253 252 252 253 251 248 245 243 243 244 245 244 243 242 241 241 241 242 242 243 243 244 244 244 245 246 248 248 248 248 249 250 250 251 251 250 250 249 249 249 250 251 250 249 250 250 251
293 291 289 288 284 277 271 270 275 277 270 262 259 259 257 253 253 255 257 262 265 265 261 258 257 259 263 264 261 260 259 256 252 251 252 253 252 252 253 255 256 255 256 256 253 249 246 244 243 245 244 243 242 242 241 238 238 240 241 242 243 243 244 245 246 247 247 247 246 247 248 249 249 250 250 249 249 248 248 247 248 249 249 248 249 250 252
289 287 285 281 277 272 268 268 271 272 267 261 261 262 259 255 253 253 256 260 264 265 263 261 261 262 265 264 262 260 258 255 251 251 253 256 256 256 256 257 257 257 256 256 253 249 245 245 246 246 244 241 241 241 240 238 239 240 241 242 242 243 244 246 247 248 248 247 246 246 247 247 248 248 249 248 248 247 246 246 246 247 248 249 250 251 253
286 285 282 277 273 270 267 266 268 268 264 261 262 263 260 255 252 252 255 259 262 264 264 264 262 262 264 263 260 256 254 253 251 251 253 257 259 259 258 258 259 258 256 255 253 249 246 246 247 247 245 243 241 240 239 239 240 242 242 242 242 243 245 247 249 249 248 247 245 246 247 248 248 248 249 249 249 247 246 246 246 247 249 251 253 254 255
284 284 281 276 272 270 267 266 265 264 262 260 260 260 258 256 253 251 252 255 258 261 263 264 265 265 266 266 262 257 255 254 254 254 255 257 258 258 257 257 258 257 256 255 254 252 250 250 250 249 248 246 243 241 240 240 241 241 242 242 242 243 245 247 248 248 248 247 247 247 248 249 249 250 250 250 250 249 249 249 249 251 252 254 255 256 257
282 281 278 275 273 271 268 265 263 261 259 261 261 259 257 257 256 253 253 257 260 261 262 265 266 266 265 264 261 258 256 255 254 254 256 256 256 256 255 255 255 255 255 254 253 252 252 252 252 251 250 249 246 243 241 240 241 241 241 241 242 244 245 246 246 247 248 248 248 248 249 250 250 251 251 251 251 252 252 252 253 253 254 255 256 258 259
279 278 276 274 273 273 270 266 264 261 259 260 261 260 260 262 262 260 258 259 263 265 267 269 270 269 266 262 258 254 252 252 253 254 254 253 253 254 254 253 253 254 254 252 251 250 251 252 253 253 251 248 246 243 242 241 241 241 241 241 241 243 245 246 246 247 248 250 250 251 251 252 252 253 254 254 254 254 254 255 255 255 256 257 258 259 261
278 277 275 272 271 271 270 268 265 261 257 256 257 260 264 267 266 263 260 260 264 269 272 273 274 274 271 266 261 256 252 252 255 257 255 253 252 253 254 252 252 253 253 251 249 248 250 253 254 253 250 247 245 244 243 242 242 243 243 243 243 244 245 246 247 248 249 250 252 253 254 255 255 256 256 257 257 256 256 256 257 257 257 257 258 260 262
278 277 275 271 268 269 271 270 267 262 256 252 253 259 267 269 266 263 262 262 265 269 272 272 273 274 272 267 263 260 258 257 258 261 260 256 253 254 255 255 255 255 254 252 249 248 249 251 251 248 246 246 245 244 243 242 242 243 244 245 246 247 248 248 248 249 250 251 252 253 254 256 257 258 259 260 260 260 259 259 259 259 259 259 260 261 263
277 276 275 271 268 268 268 267 266 263 258 252 252 258 265 267 263 261 260 261 263 266 268 269 270 272 271 266 261 258 256 256 258 262 263 259 256 256 258 258 258 257 255 253 250 249 249 250 248 246 245 245 245 244 242 241 241 243 245 247 248 249 250 250 250 250 250 251 252 253 255 256 258 260 261 262 262 261 260 260 260 261 261 261 261 262 262
274 274 273 271 268 265 263 262 262 262 258 255 254 257 260 261 259 258 258 259 262 265 267 268 269 271 272 268 262 256 254 254 255 259 261 260 257 256 257 257 257 256 254 252 251 252 252 251 249 248 247 247 247 246 244 242 242 244 247 248 248 249 250 250 250 249 250 252 254 256 258 259 260 261 262 262 262 261 261 261 262 262 262 262 261 261 262
271 269 269 269 268 266 263 260 257 255 253 253 255 257 257 256 255 256 258 260 260 261 263 266 267 268 269 268 264 260 257 256 256 258 260 260 258 257 258 257 257 256 254 252 252 254 254 252 251 252 252 251 250 249 247 245 244 245 246 247 248 249 250 251 251 251 252 254 257 259 260 260 260 261 262 262 262 262 262 262 263 263 264 263 262 261 262
272 268 266 266 266 265 263 259 255 253 253 256 260 262 261 257 254 255 258 258 256 255 257 260 263 264 264 264 262 261 261 261 261 260 260 259 258 259 260 261 261 260 259 256 255 255 254 252 253 256 255 252 249 248 248 247 247 248 247 247 248 250 252 253 254 254 254 255 256 258 259 259 259 259 260 260 261 262 263 263 263 264 263 262 261 261 261
276 271 268 264 261 260 259 258 256 255 255 256 258 259 258 254 251 253 256 256 254 254 255 256 258 262 264 264 263 262 263 263 263 263 262 261 259 258 259 261 262 262 262 261 259 256 253 252 254 257 256 252 250 250 251 250 250 251 251 252 252 252 253 255 257 258 257 258 258 259 260 260 260 260 260 261 262 263 263 264 264 265 264 262 261 261 260
275 273 271 268 264 260 259 258 258 257 255 253 250 249 248 246 247 253 259 259 258 257 257 256 257 260 265 266 266 265 263 262 261 262 262 263 262 260 259 260 263 263 263 262 261 259 256 253 253 254 254 251 250 251 253 251 250 250 251 252 253 253 254 256 258 259 259 258 258 258 259 260 262 262 262 263 265 266 265 265 266 266 266 265 263 261 260